Location: Berlise
(49.6641°N, 4.1077°E)
Time: 03:17:47
(UTC+00:00)

Cosmos 1953 - Pass Details

Date: 27 January 2021
Orbit: 539 x 556 km, 82.5° (Epoch: 24 February)

Event Time Altitude Azimuth Distance (km) Brightness Sun altitude
Exits shadow 05:32:16 15° 342° (NNW) 1,506 4.3 -17.8°
Drops below altitude 10° 05:33:11 10° 350° (N) 1,813 4.8 -17.6°
Sets 05:35:34 0° 2° (N) 2,710 5.8 -17.2°
